GFSGBSN_850_dewp_273.txt.gz
Dewpoint
1 -0 -1 -3 -15 -13 -10 -11 -14 -15 -15 -17 -17 -18 -20 -25 -22 -17 -20 -19 -15 -12 -14 -10 -11 -9 -8 -6 -12 -14 -13 -13 -9 -9 -10 -10 -11 -12 -12 -12 -11 -13 -15 -14 -11 -4 -2
-0 -1 -1 -3 -12 -6 0 -3 -9 -12 -13 -16 -18 -17 -19 -23 -24 -19 -20 -18 -15 -12 -12 -12 -8 -8 -8 -7 -14 -15 -14 -13 -12 -10 -10 -10 -9 -10 -11 -11 -11 -12 -15 -14 -9 -2 -1
-1 0 -1 -3 -10 -2 0 -1 -6 -8 -11 -14 -17 -18 -19 -21 -25 -19 -21 -18 -14 -11 -12 -9 -9 -6 -10 -15 -15 -15 -15 -13 -11 -10 -11 -9 -8 -10 -10 -11 -13 -15 -13 -11 -11 -8 -6
-0 -0 -0 -3 -9 -1 -0 -0 -4 -4 -6 -11 -15 -18 -17 -20 -26 -20 -22 -19 -16 -12 -11 -10 -7 -7 -7 -13 -15 -15 -15 -14 -11 -9 -9 -7 -7 -8 -10 -11 -11 -11 -11 -8 -9 -5 -2
-3 -1 0 -0 -3 -4 0 -0 -1 -2 -3 -8 -13 -17 -18 -20 -25 -20 -22 -20 -18 -17 -11 -11 -10 -12 -10 -12 -14 -14 -15 -11 -10 -10 -7 -7 -8 -9 -9 -9 -9 -9 -7 -8 -8 -1 -2
-1 -3 -1 -0 -0 -3 -1 -1 0 -0 -1 -5 -11 -16 -19 -20 -25 -20 -21 -19 -18 -16 -13 -15 -14 -9 -9 -12 -13 -14 -13 -13 -13 -11 -7 -8 -9 -8 -8 -9 -7 -7 -7 -8 -5 -1 -0
1 -1 -2 -3 -1 -1 -1 -4 -1 -0 0 -3 -7 -14 -18 -20 -24 -18 -13 -18 -19 -19 -20 -12 -8 -10 -12 -13 -14 -13 -14 -13 -12 -11 -9 -10 -7 -6 -7 -7 -8 -8 -7 -5 -0 -1 1
2 1 0 -2 -3 -2 -1 -2 -4 -0 -0 -3 -7 -13 -18 -19 -22 -10 1 -1 -0 -0 1 -12 -11 -9 -11 -12 -12 -13 -14 -13 -12 -9 -10 -8 -6 -8 -8 -7 -8 -7 -6 -5 -1 -1 0
-0 0 1 1 -1 -2 -1 -1 -2 -3 -1 -2 -5 -12 -18 -20 -17 -7 1 0 0 -2 1 -4 -9 -9 -12 -13 -11 -13 -14 -13 -11 -9 -9 -8 -8 -8 -6 -5 -5 -5 -5 -5 -4 -1 -1
-2 -0 -0 2 1 0 -1 -1 -1 -2 -1 -2 -4 -10 -17 -20 -10 -1 1 0 -1 -4 -3 -6 -7 -12 -13 -13 -11 -13 -13 -12 -11 -8 -8 -7 -8 -7 -6 -5 -4 -2 -5 -4 -3 -3 -2
-1 -1 0 1 1 1 0 -1 -1 -4 -3 -1 -3 -6 -15 -13 0 2 -0 -1 -4 -3 -13 -9 -11 -12 -12 -12 -12 -12 -12 -12 -11 -7 -8 -7 -7 -7 -7 -6 -5 -3 -5 -4 -3 -2 -2
-4 -2 -2 0 0 -0 1 0 -1 -2 -2 -2 -3 -5 -12 -15 -0 1 -0 0 -5 -6 -16 -5 -13 -12 -11 -12 -12 -13 -13 -12 -10 -9 -9 -9 -10 -9 -8 -8 -7 -6 -5 -3 -2 -1 1
-5 -4 -3 -3 -1 -0 1 1 1 -1 -2 -3 -2 -5 -9 -13 -0 1 0 -5 -6 -7 -10 -8 -10 -11 -12 -12 -12 -12 -13 -11 -8 -7 -7 -8 -8 -10 -9 -7 -10 -5 -3 1 2 1 1
-5 -5 -4 -4 -3 -3 -0 1 1 1 -1 -2 -2 -4 -6 -13 -0 1 -1 -2 -15 -12 -2 -9 -11 -11 -11 -11 -12 -10 -11 -10 -10 -8 -6 -5 -7 -9 -10 -8 -8 -6 -3 1 2 4 4
-5 -4 -4 -4 -4 -4 -3 -1 0 1 -0 -1 -1 -3 -6 -16 -1 1 2 -5 -7 -6 -2 -7 -11 -10 -10 -10 -11 -10 -9 -8 -10 -8 -5 -4 -7 -10 -10 -11 -8 -6 -4 -3 2 1 2
-5 -7 -6 -5 -4 -4 -4 -3 -1 -0 1 0 -1 -2 -6 -14 0 1 -0 -3 -2 -0 -0 -6 -9 -9 -8 -8 -10 -9 -6 -7 -9 -9 -7 -4 -6 -9 -11 -9 -6 -6 -4 0 0 0 3
-6 -7 -8 -8 -7 -6 -5 -3 -2 -1 -0 0 -1 -3 -5 -9 -3 1 -2 -1 1 -0 -1 -3 -8 -7 -8 -8 -8 -8 -7 -8 -9 -10 -8 -5 -5 -6 -8 -6 -4 -2 -3 0 0 -0 1
-7 -5 -9 -8 -7 -7 -7 -4 -4 -2 -1 0 -1 -2 -3 -4 -4 -2 -0 -0 -0 -1 -3 -3 -9 -8 -7 -7 -7 -7 -4 -6 -10 -9 -6 -6 -5 -4 -7 -9 -6 -4 -2 -1 -3 -2 -2
-8 -7 -5 -7 -6 -6 -7 -7 -4 -2 -1 -1 -1 -3 1 -3 -6 -5 -3 -2 -2 -2 -2 -2 -7 -9 -8 -7 -7 -5 -4 -6 -9 -7 -5 -5 -4 -2 -5 -6 -10 -6 -2 -2 -1 -2 -1
-7 -9 -5 -6 -8 -7 -6 -7 -4 -4 -2 -1 -1 -4 -2 1 -3 -5 -3 -4 -2 -5 -3 -3 -3 -7 -9 -6 -3 -2 -5 -6 -6 -5 -8 -6 -2 -4 -3 -5 -7 -8 -2 -1 -2 -0 -1
-6 -7 -7 -6 -7 -9 -6 -7 -6 -4 -3 -2 -1 -1 -4 -2 0 -4 -4 -5 -5 -3 -5 -4 -5 -6 -8 -4 -2 -2 -3 -4 -5 -4 -5 -7 -2 -2 -4 -5 -7 -7 -4 -1 -2 -2 -1
-5 -6 -7 -6 -5 -7 -8 -7 -7 -4 -4 -3 -2 -1 -0 -1 0 -1 -3 -4 -5 -7 -2 -5 -4 -6 -7 -6 -4 -1 -4 -5 -6 -6 -7 -4 -3 -5 -5 -6 -7 -8 -5 -3 -4 -3 -1
-6 -6 -7 -8 -7 -6 -7 -9 -7 -6 -4 -4 -3 -2 -1 -1 -1 -0 -1 -3 -4 -6 -5 -4 -6 -5 -6 -6 -7 -6 -7 -7 -6 -6 -7 -3 -3 -3 -3 -4 -7 -4 -6 -4 -4 -5 -5
-6 -6 -7 -7 -7 -7 -7 -7 -8 -7 -4 -4 -3 -4 -3 -0 -1 -0 -1 -3 -4 -4 -6 -4 -5 -3 -5 -5 -5 -5 -4 -5 -6 -5 -5 -2 -3 -4 -3 -5 -9 -7 -9 -9 -7 -7 -6
-7 -7 -7 -7 -7 -8 -6 -6 -7 -8 -7 -4 -4 -4 -4 -4 -1 -1 -2 -2 -3 -4 -4 -3 -4 -3 -5 -5 -3 -4 -4 -4 -6 -4 -3 -4 -3 -3 -4 -4 -6 -8 -8 -5 -8 -9 -9
-7 -7 -7 -7 -6 -7 -7 -7 -6 -6 -8 -5 -5 -3 -4 -3 -4 -2 -2 -2 -2 -2 -3 -4 -6 -6 -4 -3 -2 -4 -2 -2 -1 -2 -2 -3 -4 -4 -2 -6 -6 -10 -7 -9 -10 -5 -10
-7 -7 -8 -8 -8 -7 -6 -6 -7 -6 -6 -5 -5 -6 -4 -4 -6 -5 -2 -1 -2 -2 -2 -3 -4 -4 -5 -3 -6 -3 -1 -3 -0 -0 0 -0 -3 -4 -6 -4 -3 -7 -7 -10 -4 -5 -9
-7 -8 -8 -8 -7 -7 -6 -6 -6 -7 -5 -5 -6 -7 -5 -4 -6 -7 -4 -3 -2 -2 -1 -3 -3 -3 -2 -1 -2 -3 -2 -2 -2 -2 -1 -0 -2 -3 -3 -5 -3 -7 -7 -6 -6 -8 -8
-7 -7 -7 -8 -6 -7 -7 -6 -5 -6 -5 -4 -6 -7 -5 -5 -5 -6 -7 -6 -5 -5 -3 -0 -1 -2 -3 -2 -3 -2 -0 -2 -3 -1 -4 -0 -2 -1 -2 -2 -6 -6 -6 -8 -9 -8 -8

GFSGBSN_850_dewp_276.txt.gz
Dewpoint
0 0 -0 -1 -3 -12 -3 -3 -7 -12 -13 -15 -18 -20 -20 -21 -25 -21 -20 -21 -16 -13 -14 -10 -10 -10 -9 -7 -11 -15 -14 -13 -10 -10 -10 -10 -12 -13 -12 -11 -12 -13 -12 -2 -2 -2 -1
-1 -0 -0 -1 -3 -8 -2 1 -3 -8 -11 -12 -16 -19 -19 -20 -23 -24 -20 -22 -17 -13 -12 -11 -8 -7 -8 -8 -13 -15 -14 -13 -11 -10 -10 -10 -9 -11 -11 -11 -12 -13 -7 -3 -1 -1 -0
-2 -0 0 -1 -5 -4 0 -0 -1 -4 -7 -10 -14 -18 -18 -19 -23 -26 -21 -22 -17 -13 -12 -9 -9 -6 -10 -15 -15 -15 -15 -13 -11 -10 -10 -8 -8 -10 -11 -12 -14 -9 -4 -9 -3 -7 -5
-1 -3 -0 -0 -0 -6 -3 0 -0 -1 -3 -5 -11 -15 -18 -19 -21 -26 -21 -23 -18 -12 -11 -10 -8 -9 -8 -13 -15 -14 -14 -13 -10 -10 -9 -7 -7 -9 -11 -12 -12 -12 -10 -8 -3 -4 -1
-1 -1 -2 0 -0 -1 -3 -1 0 1 0 -2 -7 -13 -17 -19 -21 -25 -21 -23 -19 -13 -12 -11 -10 -13 -10 -13 -14 -14 -13 -12 -10 -9 -7 -7 -9 -9 -9 -10 -10 -9 -8 -8 -4 -1 -1
2 0 -1 -3 -2 -1 -1 -2 -3 -1 0 0 -3 -10 -16 -19 -21 -22 -20 -20 -19 -19 -15 -12 -13 -10 -10 -12 -13 -13 -13 -13 -12 -8 -8 -10 -9 -8 -8 -11 -9 -8 -7 -3 -1 -0 -0
2 1 1 -1 -3 -3 -0 -1 -1 -3 -0 0 -2 -7 -16 -20 -22 -16 -10 -18 -15 -17 -17 -17 -8 -9 -11 -13 -14 -13 -13 -12 -11 -10 -10 -9 -7 -6 -7 -8 -9 -8 -5 0 -0 -1 0
0 -1 0 1 0 -2 -2 -2 -1 -3 -3 -1 -2 -6 -14 -19 -23 -3 -1 -2 0 1 0 -10 -17 -11 -10 -12 -12 -13 -13 -13 -11 -10 -9 -7 -6 -8 -7 -8 -7 -5 -2 -0 -0 -1 -0
-1 -1 -2 -0 1 1 1 -1 -1 -1 -1 -2 -1 -5 -13 -18 -20 -1 0 -0 -1 -2 0 -4 -10 -11 -11 -12 -11 -13 -13 -12 -10 -9 -9 -7 -8 -7 -7 -7 -6 -5 -3 -4 -1 -0 -0
-1 -3 -2 -0 0 0 1 -0 -2 -2 -1 -3 -2 -3 -12 -17 -11 -0 1 -0 -2 -3 -8 -12 -2 -9 -10 -13 -13 -13 -13 -12 -10 -7 -7 -7 -8 -6 -6 -5 -5 -4 -6 -2 -0 -4 -1
-2 -4 -4 -2 0 -1 1 -0 -2 -2 -2 -4 -2 -3 -8 -15 -2 1 0 -1 -5 -4 -12 -11 -11 -12 -12 -13 -13 -14 -12 -12 -10 -8 -8 -7 -8 -8 -7 -5 -5 -3 -4 -3 -3 -2 -1
-4 -4 -4 -4 -2 -0 -2 -3 -1 -0 -2 -2 -3 -3 -6 -12 -2 1 -1 -1 -3 -7 -14 -6 -12 -12 -11 -12 -11 -13 -13 -10 -9 -8 -9 -9 -10 -9 -8 -7 -7 -5 -4 -3 -2 -2 0
-5 -4 -5 -4 -4 -3 -1 -0 -0 1 0 -1 -3 -2 -5 -10 -3 1 -1 -2 -5 -9 -10 -8 -11 -11 -11 -11 -12 -12 -13 -10 -7 -6 -7 -8 -8 -10 -8 -8 -8 -5 -3 0 0 0 1
-5 -6 -6 -6 -3 -3 -3 -3 -0 0 0 1 -1 -2 -3 -9 -8 1 0 -5 -17 -11 -5 -10 -11 -11 -10 -11 -12 -11 -12 -9 -10 -8 -6 -5 -7 -9 -10 -7 -7 -5 -3 1 1 3 2
-5 -5 -5 -7 -5 -4 -3 -3 -2 -1 -0 1 -0 -1 -2 -9 -12 2 1 -6 -7 -10 -6 -7 -11 -9 -10 -10 -11 -10 -11 -8 -9 -9 -5 -5 -7 -10 -10 -11 -9 -5 -4 -4 2 1 3
-5 -5 -8 -5 -8 -8 -6 -4 -3 -2 -1 1 0 -0 -2 -6 -13 1 -0 -3 -5 -4 1 -5 -9 -9 -9 -9 -10 -9 -8 -8 -9 -8 -6 -5 -6 -10 -10 -8 -5 -6 -4 -1 -0 0 2
-6 -6 -5 -6 -8 -9 -8 -7 -5 -2 -1 -0 0 -1 -4 -9 -4 2 -1 -2 -1 -2 -0 -1 -9 -8 -9 -8 -9 -7 -7 -8 -9 -8 -7 -6 -5 -7 -8 -7 -3 -3 -1 -0 -1 -1 -0
-6 -9 -8 -5 -7 -9 -8 -8 -6 -4 -1 -1 -1 -3 -4 -5 -2 -2 -1 -2 -1 -0 -3 -1 -6 -9 -7 -7 -7 -8 -6 -7 -9 -8 -5 -6 -5 -4 -7 -9 -7 -5 -4 -1 -4 -6 -3
-7 -7 -9 -7 -5 -8 -9 -7 -7 -4 -3 -1 -1 -2 -2 -4 -5 -4 -3 -2 -2 -2 -2 -3 -6 -6 -8 -7 -7 -8 -5 -5 -9 -8 -4 -5 -4 -3 -5 -6 -9 -5 -1 -3 -3 -2 -2
-6 -6 -7 -8 -5 -6 -9 -8 -8 -6 -3 -2 -1 -3 -2 -0 -3 -5 -4 -3 -3 -4 -3 -4 -3 -6 -9 -7 -3 -3 -6 -5 -6 -6 -6 -6 -5 -5 -3 -5 -6 -7 -1 -2 -3 -0 -1
-8 -7 -7 -7 -5 -5 -7 -10 -8 -6 -3 -3 -2 -2 -4 1 0 -6 -5 -8 -5 -4 -4 -4 -5 -5 -8 -3 -3 -3 -4 -5 -6 -3 -5 -5 -3 -5 -6 -5 -9 -9 -2 -1 -4 -5 -5
-7 -6 -6 -7 -6 -6 -5 -8 -8 -8 -4 -4 -3 -1 -1 -1 0 -2 -4 -4 -5 -6 -3 -5 -4 -6 -7 -6 -5 -2 -4 -5 -6 -7 -5 -5 -2 -5 -5 -6 -7 -8 -5 -2 -4 -3 -3
-7 -6 -6 -7 -7 -7 -6 -6 -8 -7 -6 -4 -4 -3 -3 -1 -1 -1 -1 -3 -4 -5 -6 -4 -6 -5 -6 -7 -7 -6 -7 -7 -7 -6 -4 -5 -3 -3 -2 -4 -6 -4 -5 -3 -4 -5 -5
-8 -6 -6 -7 -8 -8 -7 -6 -7 -9 -6 -5 -4 -4 -4 -2 -1 -2 -2 -2 -2 -4 -5 -5 -6 -3 -5 -5 -5 -5 -5 -6 -6 -5 -5 -3 -4 -4 -4 -6 -5 -5 -10 -8 -6 -6 -6
-8 -7 -6 -7 -7 -7 -8 -7 -7 -8 -7 -6 -7 -5 -4 -4 -3 -3 -1 -2 -2 -4 -3 -5 -8 -4 -5 -5 -3 -3 -4 -4 -6 -5 -4 -5 -3 -3 -5 -4 -7 -11 -9 -7 -6 -7 -7
-7 -6 -6 -6 -6 -6 -6 -7 -6 -5 -7 -5 -7 -6 -4 -4 -6 -3 -2 -1 -2 -2 -3 -4 -5 -5 -5 -4 -2 -4 -1 -2 -1 -2 -3 -5 -5 -4 -6 -7 -8 -11 -8 -8 -11 -6 -10
-8 -6 -6 -6 -7 -7 -6 -5 -5 -5 -5 -5 -5 -7 -4 -4 -6 -5 -4 -2 -2 -3 -2 -3 -4 -4 -5 -2 -6 -4 -1 -2 -0 -1 -0 -2 -5 -7 -7 -6 -4 -8 -7 -10 -6 -7 -9
-8 -7 -6 -6 -7 -8 -8 -8 -7 -5 -5 -4 -6 -7 -5 -5 -6 -7 -4 -3 -3 -2 -1 -2 -2 -2 -2 -2 -2 -3 -2 -1 -2 -2 -1 -1 -3 -4 -4 -7 -7 -9 -9 -6 -6 -9 -7
-8 -7 -7 -6 -8 -8 -8 -7 -8 -7 -5 -4 -5 -7 -6 -5 -6 -6 -7 -6 -7 -5 -4 -2 -0 -1 -3 -1 -3 -3 -1 -3 -2 0 -3 -0 -3 -1 -3 -3 -7 -7 -7 -9 -6 -8 -8

GFSGBSN_850_dewp_279.txt.gz
Dewpoint
-2 -2 -1 -0 -2 -5 -5 0 -1 -4 -9 -12 -16 -20 -20 -20 -23 -26 -23 -24 -20 -16 -15 -10 -10 -9 -9 -8 -10 -15 -14 -14 -12 -10 -11 -11 -12 -13 -10 -11 -12 -5 -3 -1 -1 -0 0
-1 -1 -0 0 -2 -7 -2 0 -1 -1 -3 -7 -12 -18 -19 -20 -22 -25 -24 -23 -20 -14 -13 -11 -9 -8 -9 -8 -13 -15 -14 -13 -12 -10 -10 -10 -12 -12 -11 -11 -11 -4 -2 -1 -1 -0 -0
-1 -1 -2 -0 -1 -1 -5 -1 0 -1 0 -1 -5 -14 -18 -19 -21 -24 -25 -23 -21 -14 -12 -10 -9 -8 -9 -16 -15 -15 -15 -13 -11 -10 -9 -8 -10 -11 -13 -9 -3 -3 -3 -4 -2 -5 -2
-0 -1 -1 -2 -0 -0 -4 -1 -1 0 0 0 -1 -9 -16 -18 -21 -24 -25 -23 -22 -14 -12 -10 -9 -10 -10 -13 -15 -14 -13 -12 -10 -10 -8 -7 -9 -11 -12 -8 -8 -7 -8 -6 -2 -2 -2
2 2 -0 -1 -3 -1 -1 -1 -2 -2 -3 0 0 -5 -14 -18 -21 -25 -23 -24 -21 -14 -12 -11 -10 -12 -11 -13 -14 -14 -13 -12 -10 -9 -7 -7 -9 -10 -11 -9 -8 -9 -7 -5 -3 -1 -2
-0 2 2 2 -1 -4 -2 -1 -1 -1 -2 -2 -1 -3 -12 -18 -21 -24 -20 -21 -19 -17 -15 -12 -12 -11 -11 -12 -14 -13 -13 -12 -11 -8 -9 -9 -9 -8 -11 -10 -7 -7 -6 -1 -1 -1 -1
-1 -2 1 1 1 -1 -2 -2 -1 -1 -1 -3 -3 -3 -9 -16 -20 -17 -10 -17 -15 -15 -16 -16 -12 -10 -11 -12 -13 -13 -13 -12 -9 -10 -8 -8 -8 -9 -11 -9 -10 -6 -3 -0 0 -1 -0
-1 -3 -2 -2 -0 2 1 1 0 -0 -1 -1 -2 -3 -8 -16 -21 -4 -3 -5 -2 -2 -1 -14 -16 -10 -10 -12 -12 -13 -13 -12 -10 -8 -8 -7 -5 -7 -8 -9 -6 -4 -2 0 -0 -1 -1
-2 -1 -3 -2 -2 -0 0 1 1 -1 -1 -1 -3 -3 -8 -16 -19 0 -0 -0 -0 -1 1 -4 -8 -15 -10 -11 -12 -14 -13 -11 -9 -8 -8 -6 -7 -8 -7 -6 -4 -4 -3 -0 -1 -0 -1
-3 -2 -3 -4 -3 -1 -3 -4 -1 -1 -1 -2 -3 -3 -6 -15 -9 1 1 0 -1 -1 -7 -9 -2 -8 -10 -12 -12 -13 -12 -11 -9 -6 -7 -6 -7 -7 -6 -6 -7 -5 -6 -2 -1 -3 -1
-5 -5 -6 -5 -5 -3 -1 -2 -3 -3 -2 -2 -2 -3 -5 -12 -6 1 1 0 -3 -2 -5 -8 -8 -11 -12 -13 -14 -14 -12 -11 -8 -7 -7 -6 -7 -6 -5 -5 -5 -3 -3 -2 -4 -2 -1
-5 -6 -5 -7 -4 -4 -3 -3 -3 -4 -1 0 -2 -2 -3 -8 -10 1 -0 -0 -2 -3 -8 -6 -12 -11 -10 -12 -12 -13 -12 -9 -9 -9 -8 -8 -10 -9 -7 -7 -5 -4 -3 -3 -3 -2 -1
-5 -5 -6 -6 -5 -4 -4 -4 -3 -1 -1 0 -0 -1 -3 -5 -8 1 -0 -1 -1 -3 -10 -8 -10 -10 -10 -10 -11 -12 -10 -8 -7 -5 -6 -8 -8 -10 -8 -5 -6 -5 -4 -1 -0 1 -1
-5 -5 -5 -5 -5 -5 -4 -3 -3 -2 -1 0 -0 0 -2 -3 -9 -1 1 -5 -5 -9 -7 -10 -10 -10 -9 -11 -11 -11 -9 -7 -9 -8 -7 -6 -5 -8 -9 -6 -5 -4 -3 -2 -3 -1 0
-5 -5 -6 -6 -6 -7 -9 -6 -4 -2 -2 -1 -1 -0 -1 -3 -9 -3 0 -2 -3 -10 -10 -8 -10 -9 -9 -10 -10 -10 -8 -7 -8 -8 -6 -6 -6 -10 -9 -9 -8 -4 -2 -3 1 1 2
-6 -6 -5 -5 -7 -7 -10 -10 -8 -5 -3 -2 -1 0 -1 -3 -5 -3 1 -1 -6 -7 1 -6 -7 -8 -8 -8 -8 -9 -8 -8 -8 -8 -7 -5 -6 -9 -6 -7 -4 -6 -3 1 0 4 3
-6 -6 -7 -7 -5 -7 -8 -9 -9 -8 -4 -2 -1 -0 -2 -5 -9 1 2 0 -3 -4 -1 -0 -8 -8 -8 -8 -8 -7 -8 -8 -7 -7 -6 -6 -5 -7 -8 -7 -3 -2 -0 0 -1 -1 -3
-7 -6 -7 -8 -8 -5 -8 -10 -8 -7 -4 -2 -1 -0 -3 -5 -0 -1 0 -2 -2 -1 -2 0 -3 -8 -7 -6 -7 -6 -6 -7 -9 -6 -6 -6 -5 -5 -7 -8 -6 -4 -2 -2 4 2 -0
-7 -8 -7 -7 -8 -8 -5 -12 -8 -7 -5 -2 -1 -1 -2 -3 -1 -2 -2 -2 -2 -2 -2 -2 -4 -6 -7 -5 -6 -6 -5 -6 -9 -5 -3 -5 -3 -4 -6 -8 -6 -4 -2 -3 -3 -1 1
-8 -9 -8 -7 -7 -7 -6 -8 -10 -6 -6 -3 -2 -0 -2 -0 -4 -5 -3 -3 -2 -4 -3 -3 -3 -4 -7 -5 -3 -3 -4 -5 -6 -6 -6 -7 -5 -4 -3 -5 -6 -5 -2 -3 -5 -1 -2
-8 -8 -8 -7 -6 -5 -6 -5 -9 -6 -6 -4 -3 -1 -3 -0 0 -5 -5 -7 -4 -4 -3 -4 -5 -3 -7 -1 -3 -3 -4 -4 -4 -1 -5 -3 -3 -5 -6 -6 -7 -7 -3 -4 -7 -6 -7
-8 -7 -7 -7 -7 -6 -6 -6 -7 -9 -6 -4 -3 -2 -2 -2 -0 -2 -5 -5 -8 -7 -4 -4 -3 -5 -4 -4 -4 -2 -4 -4 -3 -7 -4 -6 -0 -3 -3 -5 -8 -7 -5 -4 -5 -6 -8
-7 -8 -7 -8 -8 -7 -6 -6 -5 -9 -7 -5 -4 -4 -3 -2 -2 -1 -1 -3 -5 -7 -7 -3 -4 -4 -6 -6 -7 -6 -7 -7 -5 -4 -4 -4 -1 -0 -0 -4 -6 -3 -6 -4 -4 -6 -7
-9 -9 -9 -9 -7 -8 -7 -6 -5 -7 -8 -6 -7 -4 -4 -3 -2 -1 -2 -2 -3 -4 -4 -5 -5 -4 -4 -5 -5 -6 -6 -5 -5 -4 -4 -4 -3 -3 -1 -4 1 -4 -9 -7 -5 -5 -7
-8 -9 -9 -8 -7 -7 -6 -7 -7 -6 -7 -7 -6 -6 -5 -4 -4 -4 -3 -1 -2 -2 -2 -5 -6 -6 -4 -5 -1 -1 -1 -2 -4 -2 -4 -4 -3 -1 1 -2 -8 -9 -9 -7 -5 -6 -6
-9 -10 -9 -7 -6 -6 -6 -6 -6 -5 -4 -6 -5 -5 -6 -4 -6 -4 -3 -2 -1 -1 -2 -3 -4 -4 -4 -3 -1 1 1 -1 -1 -2 -4 -5 -5 0 -2 -2 -2 -9 -9 -8 -9 -6 -9
-8 -10 -9 -7 -7 -6 -5 -5 -5 -5 -5 -4 -6 -5 -5 -4 -5 -5 -5 -4 -3 -2 -2 -3 -4 -4 -5 -1 -0 0 -0 -3 -1 -2 -1 -2 -2 -1 -2 -2 -7 -10 -7 -9 -6 -6 -8
-8 -8 -9 -8 -7 -6 -6 -7 -6 -5 -5 -4 -4 -6 -6 -6 -7 -6 -6 -4 -3 -3 -1 -1 -2 -2 -2 -0 0 -1 -0 -1 -2 -3 -3 -3 -1 -2 -2 -2 -4 -9 -8 -5 -6 -9 -8
-9 -9 -9 -8 -7 -6 -6 -8 -8 -7 -6 -4 -4 -5 -5 -6 -8 -9 -10 -9 -8 -6 -4 -3 -1 -0 -2 -1 -1 -1 -1 -1 -1 1 -3 -3 -3 -1 -3 -4 -7 -9 -8 -9 -8 -7 -8

GFSGBSN_850_dewp_285.txt.gz
Dewpoint
-1 -1 -2 -0 -0 -1 -4 -1 -1 -0 -0 0 -2 -6 -15 -18 -20 -22 -26 -26 -25 -21 -17 -13 -11 -11 -10 -5 -11 -12 -17 -15 -15 -12 -11 -11 -10 -11 -11 -10 -9 -9 -5 -4 -2 -1 -0
1 -1 -1 -2 -0 -0 -1 -2 -2 -0 0 -3 -1 -2 -9 -16 -19 -22 -25 -27 -25 -22 -17 -13 -11 -12 -4 -9 -11 -13 -13 -15 -14 -13 -12 -10 -11 -11 -11 -10 -9 -6 -4 -3 -2 -1 -1
2 2 2 1 -2 -1 -0 -1 -1 -1 -1 -2 -3 -3 -7 -13 -17 -21 -24 -28 -26 -23 -17 -12 -11 -11 -3 -11 -14 -12 -13 -15 -15 -12 -11 -9 -9 -10 -9 -8 -5 -4 -2 -1 -1 -2 -2
1 1 2 2 2 -2 -3 -1 -0 -0 -1 -2 -2 -4 -6 -13 -17 -20 -24 -28 -26 -25 -17 -12 -11 -5 -4 -11 -12 -13 -15 -14 -14 -13 -9 -8 -8 -9 -7 -5 -4 -3 -3 -1 -2 -2 -3
-2 0 -1 -2 0 2 -1 -3 -1 0 -1 -0 -1 -2 -4 -11 -17 -22 -25 -27 -26 -25 -16 -12 -9 -3 -10 -11 -14 -14 -13 -14 -14 -12 -8 -8 -8 -9 -5 -4 -3 -4 -3 -3 -2 -4 -4
-2 -1 -1 -2 -2 0 2 2 0 1 1 0 -2 -2 -4 -10 -16 -22 -24 -22 -23 -20 -14 -8 -7 -8 -11 -15 -15 -14 -13 -13 -12 -11 -8 -9 -9 -7 -5 -5 -4 -3 -6 -3 -2 -3 -5
-1 -2 -2 -1 -2 -2 -0 1 1 2 1 0 -1 -2 -3 -10 -17 -22 -11 -3 -7 -7 -8 -11 -13 -14 -12 -14 -14 -13 -13 -13 -12 -10 -10 -10 -9 -6 -6 -7 -9 -7 -7 -5 -4 -6 -4
-5 -3 -2 -2 -1 -1 -2 -1 -1 -1 -2 -1 -1 -2 -3 -9 -18 -4 -6 -1 1 2 -1 -11 -13 -13 -10 -11 -14 -13 -13 -12 -10 -9 -11 -10 -8 -10 -10 -8 -8 -8 -6 -3 -2 -3 -3
-6 -6 -6 -7 -5 -3 -4 -4 -2 -2 -3 -4 -4 -4 -3 -10 -6 2 2 1 -0 2 0 -7 -13 -12 -12 -11 -14 -13 -12 -10 -10 -11 -10 -10 -11 -11 -10 -8 -7 -6 -5 -2 -2 -4 -5
-4 -5 -5 -5 -5 -6 -7 -3 -3 -4 -4 -4 -5 -4 -2 -12 -1 1 3 1 -1 -3 -1 -7 -7 -13 -13 -12 -14 -13 -12 -11 -10 -10 -12 -12 -8 -10 -9 -8 -8 -5 -7 -3 -4 -4 -3
-8 -8 -7 -4 -6 -8 -7 -4 -3 -4 -4 -5 -5 -5 -2 -3 -2 1 3 0 -2 -0 9 -10 -9 -15 -13 -13 -14 -13 -12 -10 -10 -11 -10 -7 -7 -10 -9 -9 -9 -6 -7 -6 -4 -4 -3
-5 -5 -5 -4 -6 -4 -6 -5 -4 -4 -4 -3 -3 -4 -2 0 0 -0 1 0 1 3 5 -8 -9 -12 -13 -14 -15 -14 -11 -10 -11 -9 -10 -8 -12 -12 -12 -11 -10 -7 -6 -5 -6 -6 0
-5 -5 -4 -5 -5 -6 -6 -5 -7 -7 -3 -2 -2 -2 -2 1 -1 1 0 2 2 7 -9 -8 -10 -13 -12 -13 -15 -12 -10 -8 -9 -7 -6 -8 -8 -8 -7 -8 -7 -7 -5 -1 -1 -1 1
-6 -5 -6 -5 -6 -6 -6 -7 -7 -9 -8 -5 -2 -3 -1 1 1 1 2 0 6 -1 -9 -12 -13 -12 -12 -13 -15 -12 -10 -8 -11 -11 -8 -7 -5 -7 -8 -7 -6 -7 -6 -4 -2 -3 -5
-5 -6 -5 -5 -6 -6 -5 -6 -6 -12 -9 -9 -5 -1 1 1 1 -1 0 6 6 -6 -16 -11 -12 -10 -11 -13 -15 -14 -10 -9 -11 -12 -8 -7 -6 -9 -8 -8 -8 -6 -5 -6 -3 -2 -3
-6 -7 -8 -5 -6 -7 -7 -7 -6 -11 -8 -10 -4 -1 -1 -0 -2 -1 0 4 -4 -11 -8 -11 -9 -10 -9 -10 -11 -13 -10 -10 -10 -11 -10 -9 -4 -8 -7 -7 -8 -5 -7 -1 -1 7 -2
-7 -7 -6 -7 -7 -8 -7 -9 -5 -9 -12 -8 -3 -0 -0 -1 -2 -3 4 1 -2 -10 -8 -4 -11 -9 -10 -9 -11 -11 -12 -12 -10 -11 -10 -8 -5 -5 -7 -5 -5 -4 -3 -3 -2 -2 -1
-7 -7 -8 -8 -9 -8 -7 -7 -6 -7 -14 -3 -2 1 1 -1 -0 -6 1 -4 -6 -8 -9 -3 -3 -9 -8 -9 -10 -10 -11 -11 -12 -10 -8 -8 -6 -3 -4 -8 -10 -8 -6 -3 9 9 1
-7 -7 -7 -7 -8 -8 -9 -7 -6 -6 -13 -3 -2 -1 1 -0 3 2 -4 -5 -5 -5 -8 -5 -2 -6 -9 -8 -7 -9 -10 -10 -10 -9 -7 -7 -4 -0 -4 -6 -8 -6 -7 -7 -3 0 9
-7 -9 -7 -8 -8 -8 -7 -6 -5 -5 -9 -5 -4 -0 -1 0 -3 -3 -3 -4 -3 -5 -5 -9 -4 -5 -6 -6 -8 -6 -9 -5 -8 -9 -7 -7 -7 -4 -4 -6 -7 -6 -6 -7 -5 2 -4
-8 -8 -9 -9 -9 -10 -7 -7 -5 -4 -6 -5 -3 -1 -1 1 0 -2 -5 -6 -6 -5 -7 -7 -6 -4 -5 2 -5 -6 -8 -4 -6 -5 -6 -5 -4 -6 -8 -10 -10 -9 -8 -6 -6 -4 -5
-8 -9 -9 -9 -11 -11 -7 -8 -5 -5 -5 -4 -3 -2 -3 -3 -2 -3 -3 -5 -7 -8 -7 -7 -6 -9 -6 -5 -5 -4 -7 -5 -6 -6 -4 -5 -3 -6 3 -7 -9 -9 -10 -10 -8 -8 -9
-8 -8 -9 -9 -8 -10 -7 -8 -6 -4 -4 -4 -4 -5 -4 -5 -4 -4 -1 -3 -6 -9 -10 -11 -10 -8 -9 -6 -5 -4 -4 -6 -8 -5 -4 -3 0 -2 -1 -6 -9 -4 -8 -9 -10 -10 -11
-7 -9 -9 -9 -6 -7 -8 -9 -6 -5 -4 -3 -4 -4 -4 -4 -4 -3 -3 -3 -3 -6 -7 -11 -10 -7 -7 -4 -5 -5 -5 -5 -5 -7 -7 -4 -3 -0 3 -4 3 -5 -10 -11 -9 -10 -12
-7 -8 -9 -10 -10 -11 -9 -8 -6 -6 -5 -4 -3 -6 -5 -3 -7 -5 -4 -4 -5 -5 -4 -8 -9 -10 -5 -5 -3 3 3 3 3 -4 -4 -6 -3 7 6 1 -6 -9 -9 -9 -9 -9 -12
-8 -8 -7 -7 -9 -11 -10 -7 -6 -6 -6 -4 -4 -4 -4 -5 -6 -5 -6 -5 -3 -2 -3 -5 -6 -5 -4 -5 -2 5 2 -1 -1 -2 -5 -5 -4 2 5 4 -0 -7 -12 -13 -12 -4 -11
-9 -9 -9 -8 -10 -9 -10 -7 -7 -5 -5 -5 -4 -4 -5 -5 -10 -8 -6 -2 -2 -3 0 -4 -4 -3 -4 -1 4 1 -1 -6 -2 -2 -1 -1 3 6 4 0 -5 -11 -15 -13 -3 -6 -14
-7 -8 -8 -9 -11 -12 -10 -8 -7 -6 -5 -4 -4 -5 -4 -5 -7 -9 -9 -7 -6 -4 -1 -0 -1 -2 -1 -0 -1 -1 -3 -4 -4 -5 -3 -3 1 4 2 5 -0 -10 -11 -8 -7 -6 -7
-8 -8 -8 -8 -9 -12 -11 -8 -7 -6 -5 -5 -4 -4 -4 -3 -5 -6 -6 -8 -6 -5 -5 -1 -0 0 0 -1 -3 -4 -4 -5 -4 -0 -6 -2 -4 0 -1 -1 -7 -9 -11 -8 -6 -7 -6

GFSGBSN_850_dewp_291.txt.gz
Dewpoint
1 2 1 2 2 1 -2 1 -1 -1 -1 -1 -1 -2 -3 -6 -11 -17 -22 -26 -29 -28 -27 -21 -16 -13 -12 -2 -7 -5 -11 -16 -27 -24 -15 -10 -11 -10 -9 -10 -10 -5 -2 -0 3 4 2
-1 -0 1 1 0 2 1 -2 -1 -0 1 0 -1 -1 -2 -4 -7 -15 -21 -25 -28 -29 -27 -22 -16 -12 -10 0 -10 -12 -13 -17 -17 -14 -14 -13 -12 -11 -10 -11 -11 -2 -1 -0 0 -0 -1
-0 0 1 0 -0 -1 1 2 2 0 -1 0 1 0 -2 -2 -5 -12 -18 -23 -28 -30 -28 -22 -15 -11 -10 -10 -9 -12 -12 -15 -16 -16 -15 -13 -12 -9 -9 -9 -6 -2 0 -0 -1 -1 -1
-0 -0 -0 -0 -0 -1 -1 1 2 2 1 2 1 0 -1 -2 -4 -11 -18 -23 -29 -30 -28 -21 -14 -11 -10 -8 -10 -12 -13 -14 -15 -16 -14 -9 -10 -8 -8 -6 -4 -1 -1 2 -0 -1 -2
-2 -2 -2 -1 -1 -1 -1 -1 0 0 1 -0 -0 0 -1 -2 -4 -11 -20 -25 -29 -29 -27 -19 -13 -12 -4 -9 -8 -10 -14 -15 -15 -15 -14 -9 -8 -8 -8 -4 -2 -2 2 2 1 -1 -1
-3 -3 -3 -2 -4 -3 -1 -1 -1 -1 -1 -2 -2 -1 -2 -3 -5 -14 -21 -21 -22 -25 -21 -14 -11 -3 -6 -8 -10 -15 -16 -16 -14 -15 -13 -9 -8 -6 -7 -4 0 -1 1 0 1 -1 -1
-3 -3 -3 -2 -2 -3 -2 -1 -1 -2 -3 -3 -3 -3 -3 -4 -6 -11 -6 -3 -2 -6 -7 -8 -13 -7 -11 -12 -12 -16 -14 -14 -14 -14 -8 -10 -6 -5 -6 -5 -4 -3 -2 -0 -1 -2 -0
-4 -4 -4 -3 -3 -2 -2 -2 -3 -3 -3 -2 -2 -3 -4 -4 -7 1 4 3 2 2 3 -1 -13 -10 -13 -13 -15 -15 -15 -14 -13 -10 -10 -10 -7 -7 -7 -5 -4 -4 -3 -4 -1 -2 -1
-4 -4 -4 -4 -4 -3 -3 -3 -3 -4 -4 -4 -2 -1 -2 -6 -8 2 2 2 1 0 4 -1 -4 -5 -10 -13 -12 -15 -16 -14 -11 -9 -10 -8 -8 -9 -8 -6 -5 -5 -4 -1 -0 -2 -1
-5 -5 -4 -4 -4 -4 -4 -4 -4 -4 -6 -6 -6 -4 -4 -8 -8 0 2 2 -0 2 5 -5 -9 -5 -10 -13 -11 -13 -15 -14 -12 -10 -10 -9 -10 -9 -9 -6 -6 -4 -3 -2 -2 -1 2
-4 -5 -5 -4 -4 -4 -4 -5 -5 -6 -5 -6 -8 -6 -4 -3 -3 -0 1 0 0 4 3 -4 -11 -9 -13 -13 -14 -14 -14 -14 -11 -9 -8 -6 -9 -8 -8 -8 -8 -4 -3 -2 -2 -1 -1
-5 -4 -4 -4 -4 -4 -4 -5 -5 -5 -5 -7 -13 -12 -4 -4 1 -1 2 -0 3 5 3 -2 -11 -12 -14 -14 -13 -17 -15 -14 -13 -9 -9 -8 -11 -9 -8 -10 -8 -4 -1 -2 -2 -1 4
-5 -5 -5 -5 -4 -4 -4 -5 -5 -6 -6 -7 -13 -14 -6 -3 -2 1 0 3 2 4 -2 -7 -8 -12 -14 -13 -12 -12 -11 -11 -7 -5 -5 -8 -7 -9 -10 -9 -8 -4 -0 3 3 4 5
-5 -5 -6 -6 -5 -5 -5 -6 -6 -8 -8 -7 -14 -9 -7 -4 -4 0 1 3 4 -0 -3 -7 -8 -11 -13 -12 -11 -11 -10 -9 -9 -7 -5 -4 -4 -8 -9 -7 -4 -3 -1 3 3 3 2
-5 -5 -6 -6 -5 -6 -6 -7 -6 -7 -10 -8 -10 -8 -5 -3 -3 0 2 4 1 0 -6 -9 -9 -6 -9 -11 -11 -11 -9 -9 -9 -9 -3 -3 -4 -9 -10 -8 -6 -3 -1 -2 -0 -0 2
-6 -5 -5 -6 -6 -6 -6 -7 -7 -8 -9 -9 -5 -3 -2 -4 1 1 2 1 1 -3 -5 -9 -3 -8 -7 -10 -9 -10 -8 -8 -9 -10 -7 -4 -2 -7 -8 -7 -7 -5 -5 -0 3 1 3
-6 -6 -5 -6 -6 -7 -6 -6 -7 -7 -8 -8 -4 -2 1 -3 0 2 0 0 -2 -3 -3 -6 -4 -2 -8 -8 -9 -7 -8 -9 -8 -8 -9 -8 -2 -4 -7 -5 -4 -4 -3 1 2 3 4
-5 -6 -6 -7 -7 -7 -5 -6 -7 -6 -6 -8 -6 -2 -0 1 1 1 1 -4 -5 -4 -5 -4 -7 -4 -1 -2 -9 -7 -6 -9 -11 -10 -7 -7 -0 -1 -4 -6 -7 -5 -4 2 2 -0 4
-6 -6 -6 -7 -7 -6 -7 -7 -6 -7 -6 -5 -5 -4 -7 -2 2 -2 -1 -1 -4 -4 -4 -4 -3 -5 -5 -1 -2 -6 -7 -9 -10 -7 -7 -5 -0 1 -3 -4 -6 -6 -3 1 4 5 5
-7 -6 -6 -7 -7 -9 -8 -7 -7 -7 -6 -6 -5 -3 -2 -1 -0 0 2 1 -1 -6 -5 -6 -3 -3 -3 -2 -2 -3 -4 -7 -7 -5 -7 -4 -3 1 0 -2 -4 -4 -3 0 3 4 3
-6 -6 -6 -10 -9 -9 -9 -8 -9 -8 -8 -5 -4 -4 -1 -2 -1 -1 -1 2 2 -1 -6 -6 -3 -4 -3 -1 -2 -3 -4 -4 -6 -5 -5 -3 -2 -3 -2 -4 -5 -5 -6 -4 -1 2 1
-6 -6 -7 -9 -9 -8 -8 -7 -9 -9 -7 -5 -4 -3 -4 -4 -7 -4 -1 -1 -2 -2 -2 -2 -3 -4 -4 -2 -2 1 -3 -3 -4 -5 -4 -3 -0 -3 -1 -2 -4 -4 -5 -6 -5 -3 -1
-9 -8 -7 -7 -7 -6 -6 -6 -8 -8 -7 -5 -5 -3 -2 -4 -6 -5 -3 2 1 -1 -4 -5 -5 -3 -4 -4 -2 -3 -2 -2 -2 -3 -2 -1 0 1 -0 -2 -1 -1 -3 -6 -6 -6 -6
-8 -8 -7 -7 -6 -6 -7 -7 -7 -8 -7 -5 -4 -4 -3 -4 -4 -4 -5 -2 -2 1 -0 -2 -3 -2 -8 -6 -5 -3 -3 -2 -1 -3 -3 -1 0 2 2 -1 1 -3 -6 -7 -7 -8 -8
-8 -8 -8 -7 -7 -7 -7 -7 -8 -7 -7 -5 -5 -4 -3 -4 -6 -7 -6 -3 -4 -3 -3 -3 -3 -3 -4 -6 -1 1 2 -0 -2 -3 -2 -2 1 2 2 3 -1 -3 -6 -7 -7 -6 -10
-7 -7 -7 -7 -8 -8 -8 -9 -8 -7 -7 -6 -5 -4 -4 -3 -5 -7 -6 -8 -3 -1 -2 -3 -3 -3 -4 -2 0 2 2 2 -0 -2 -3 -3 0 1 3 1 2 -3 -5 -9 -9 -4 -8
-9 -7 -8 -9 -8 -8 -9 -9 -11 -8 -7 -6 -6 -5 -4 -4 -7 -5 -3 -3 -5 -3 -1 -1 -1 -1 -1 -0 0 1 2 -2 0 -1 -2 1 0 2 2 1 1 -5 -7 -8 -3 -2 -8
-8 -8 -8 -9 -9 -8 -8 -9 -9 -12 -8 -6 -6 -5 -4 -4 -5 -7 -5 -4 -3 -4 -1 -1 -1 -1 1 1 1 1 1 -1 -2 -3 -3 1 1 1 2 0 1 -8 -8 -6 -5 -6 -8
-7 -7 -7 -6 -6 -7 -7 -8 -9 -12 -9 -6 -5 -6 -4 -4 -7 -10 -10 -8 -7 -6 -6 -4 -1 -1 -2 -1 0 -1 -0 -1 -2 1 -5 -1 -0 1 1 1 -2 -7 -7 -6 -5 -6 -6

GFSGBSN_850_dewp_297.txt.gz
Dewpoint
0 0 1 0 0 -0 -1 -0 1 1 1 1 1 1 1 -0 -1 -3 -6 -10 -17 -24 -27 -28 -27 -22 -15 -10 -23 -6 -11 -12 -14 -19 -24 -17 -9 -10 -9 -9 -9 -8 1 5 4 3 4
-1 -1 -1 -1 -1 -1 -0 -0 -0 -0 -0 -0 -0 -0 -1 -1 -1 -2 -5 -8 -17 -21 -27 -28 -27 -21 -14 -5 -22 -8 -9 -15 -24 -26 -25 -15 -12 -12 -10 -10 -10 1 4 3 2 2 2
-1 -2 -3 -3 -3 -3 -2 -1 -1 -0 -0 0 -1 -2 -1 -2 -2 -2 -4 -8 -18 -21 -28 -28 -27 -20 -14 -23 -12 -11 -13 -14 -18 -16 -14 -13 -12 -10 -9 -6 0 0 1 -0 -0 0 1
-2 -2 -2 -1 -2 -2 -2 -1 -1 -1 -1 -1 -0 -2 -2 -3 -4 -4 -5 -8 -19 -22 -27 -28 -26 -19 -18 -26 -15 -12 -13 -13 -16 -16 -15 -15 -9 -8 -8 -1 -1 1 1 4 -0 -1 -1
-2 -2 -2 -3 -4 -3 -3 -2 -2 -2 -2 -2 -2 -1 -2 -5 -5 -5 -6 -12 -14 -20 -25 -25 -21 -16 -17 -22 -22 -10 -12 -13 -15 -16 -15 -15 -10 -9 -7 -2 0 -1 4 3 2 -1 -0
-2 -2 -3 -2 -2 -2 -2 -2 -3 -2 -2 -3 -3 -2 -4 -10 -12 -12 -8 1 -6 -13 -17 -18 -6 -8 -22 -18 -19 -14 -12 -13 -12 -14 -15 -13 -9 -7 -6 -0 4 2 3 2 3 0 -1
-4 -4 -3 -3 -3 -3 -2 -2 -3 -3 -3 -3 -3 -3 -7 -12 -14 -10 -2 2 1 -3 -10 -14 -13 -11 -10 -11 -8 -9 -11 -10 -12 -15 -13 -9 -8 -5 -6 -4 -2 -0 1 3 1 -1 0
-3 -2 -3 -3 -3 -3 -3 -3 -3 -3 -3 -3 -3 -3 -15 -15 -12 -8 2 2 3 3 3 -3 -15 -9 -19 -8 -9 -9 -8 -11 -13 -12 -10 -9 -7 -8 -7 -6 -2 -1 1 1 -0 -1 -0
-3 -6 -4 -3 -3 -3 -3 -2 -4 -4 -4 -4 -4 -4 -12 -17 -10 -2 1 1 1 2 3 1 -4 -12 -15 -12 -10 -11 -12 -12 -12 -11 -10 -8 -9 -8 -7 -5 -2 -1 -0 0 2 -0 -1
-5 -5 -5 -5 -4 -4 -4 -4 -4 -4 -4 -3 -4 -5 -12 -17 -7 -1 1 1 1 2 -2 -5 2 -4 -10 -13 -9 -12 -15 -15 -12 -11 -10 -9 -11 -9 -7 -6 -4 -2 -3 -1 1 1 3
-4 -5 -5 -5 -6 -6 -5 -4 -5 -4 -4 -4 -5 -9 -11 -13 -9 -2 1 1 1 3 -11 -14 -1 -8 -10 -11 -12 -11 -13 -14 -12 -10 -8 -8 -9 -8 -8 -7 -6 -4 -4 -1 0 1 1
-4 -5 -5 -5 -5 -6 -5 -4 -4 -5 -5 -4 -8 -10 -10 -8 -9 -4 1 -0 2 -5 -12 -10 -7 -3 -7 -10 -12 -12 -14 -15 -14 -11 -10 -10 -10 -10 -8 -9 -8 -6 -2 -1 0 1 4
-5 -5 -6 -5 -5 -5 -5 -5 -5 -5 -5 -5 -10 -11 -9 -5 -9 -1 -0 1 -1 -5 -9 -4 -8 -8 -8 -9 -11 -12 -11 -11 -10 -8 -8 -10 -10 -10 -10 -9 -7 -4 -0 4 5 6 6
-5 -5 -5 -6 -5 -5 -5 -5 -5 -5 -5 -7 -11 -11 -3 -13 -10 -2 -1 2 -0 -9 -3 -4 -6 -9 -7 -11 -11 -11 -10 -10 -11 -10 -8 -6 -6 -8 -9 -7 -2 -4 -1 5 8 8 6
-6 -6 -5 -6 -5 -5 -5 -5 -6 -5 -6 -8 -10 -9 -2 -3 -3 -1 1 2 -3 -2 -3 -2 -2 -9 -11 -11 -11 -11 -9 -10 -11 -8 -5 -3 -5 -8 -8 -7 -4 -1 1 0 2 1 3
-5 -5 -6 -6 -6 -5 -6 -6 -6 -5 -8 -8 -9 -10 -2 -1 -1 1 0 -1 -1 -2 -5 -3 -0 -3 -7 -10 -9 -10 -8 -8 -9 -12 -7 -5 -4 -7 -8 -6 -6 -1 -2 1 2 3 3
-7 -5 -7 -5 -6 -6 -5 -5 -6 -7 -9 -8 -10 -7 -0 -2 -1 -0 1 -3 -2 -5 -6 -3 -1 -1 -1 -2 -3 -8 -8 -10 -9 -10 -10 -8 -3 -4 -6 -6 -4 -2 -1 2 1 2 3
-7 -6 -5 -6 -6 -6 -6 -6 -6 -9 -7 -9 -6 -8 -3 -1 1 -0 -1 -2 -3 -4 -4 -5 -2 -1 -1 -1 -2 -7 -7 -9 -9 -8 -7 -5 -3 -2 -4 -7 -7 -4 -1 0 3 -0 2
-6 -5 -6 -6 -7 -6 -6 -6 -6 -8 -7 -7 -5 -5 -4 -0 -0 -2 -1 0 -1 -2 -3 -3 -3 -3 -4 -2 -1 -2 -4 -8 -7 -7 -5 -5 -3 0 -3 -4 -6 -4 -1 -0 1 1 3
-7 -7 -6 -5 -7 -7 -6 -6 -6 -6 -9 -8 -5 -5 -4 -3 -3 -4 -2 -2 -1 -3 -2 -2 -4 -5 -5 -1 -3 -1 -1 -4 -5 -6 -10 -5 -2 -4 -0 -3 -4 -4 0 1 -1 1 2
-6 -7 -8 -7 -6 -7 -7 -6 -6 -6 -9 -8 -6 -7 -3 -4 -4 -4 -5 -2 -0 -0 -1 -1 -2 -2 -1 -1 -2 -1 0 -0 -4 -4 -2 -4 -3 -3 -4 -5 -4 -4 -0 1 -1 -1 -1
-7 -7 -7 -9 -8 -7 -6 -7 -6 -6 -7 -6 -4 -4 -5 -5 -4 -5 -5 -2 -3 -3 -3 -1 0 -0 -1 -1 -0 0 -1 -1 -0 -2 -4 -3 -5 -2 -2 -3 -4 -4 -2 1 -1 -0 -2
-7 -7 -8 -8 -8 -6 -6 -7 -7 -6 -5 -7 -6 -6 -4 -6 -5 -5 -4 -4 -3 -4 -6 -4 -1 1 -0 -1 -1 -2 -2 -2 -2 -2 -2 -3 -1 -1 -0 -2 -3 -2 -3 -0 -1 -1 -2
-7 -7 -8 -6 -7 -7 -6 -7 -8 -9 -6 -5 -5 -6 -5 -6 -5 -5 -5 -7 -6 -4 -4 -5 -1 2 -1 -3 -3 -5 -3 -2 -2 -1 -2 -2 -1 -1 0 -1 1 -3 -5 -6 -6 -5 -2
-7 -7 -6 -9 -8 -10 -10 -9 -9 -10 -8 -5 -5 -5 -5 -7 -6 -6 -5 -7 -5 -5 -4 -4 -2 -4 -2 -0 -1 -1 -0 -1 -1 -3 -2 -1 -0 2 1 1 -2 -4 -4 -4 -5 -5 -6
-8 -7 -7 -7 -8 -7 -7 -9 -9 -10 -12 -6 -6 -5 -5 -5 -7 -6 -6 -4 -4 -4 -3 -4 -6 -5 -0 -1 -0 -1 1 0 1 -2 -2 -0 -1 0 1 -1 -0 -3 -5 -7 -8 -3 -7
-8 -8 -8 -8 -8 -9 -9 -8 -7 -8 -10 -9 -5 -5 -5 -5 -8 -5 -6 -7 -6 -4 -3 -4 -5 -2 -2 1 -0 1 2 0 1 0 1 1 1 1 -0 -1 -2 -4 -5 -8 -3 -3 -8
-7 -8 -8 -7 -7 -7 -7 -7 -7 -7 -7 -9 -6 -6 -5 -6 -7 -7 -6 -5 -5 -4 -5 -7 -5 -4 -3 -1 1 1 1 -1 -1 -2 -1 0 1 1 1 -1 -1 -4 -7 -5 -4 -7 -7
-8 -8 -8 -7 -7 -7 -7 -6 -6 -6 -7 -6 -6 -6 -7 -6 -8 -10 -10 -11 -10 -11 -6 -7 -5 -3 -4 -3 -3 -2 1 -1 -1 1 -3 1 -1 1 0 0 -3 -5 -6 -6 -5 -7 -9

GFSGBSN_850_dewp_300.txt.gz
Dewpoint
-1 -1 -1 -2 -3 -2 -1 -1 -0 -0 -0 -1 -1 -1 -1 -1 -2 -2 -2 -3 -6 -11 -20 -27 -28 -27 -22 -14 -22 -7 -7 -10 -6 -8 -14 -22 -9 -9 -8 -9 -9 -7 3 5 5 6 6
-1 -2 -2 -1 -1 -2 -2 -1 -1 -1 -1 -1 -1 -0 -0 -2 -3 -4 -4 -3 -5 -10 -18 -25 -28 -27 -19 -9 -23 -13 -9 -11 -14 -19 -23 -15 -10 -11 -10 -10 -9 2 4 2 3 4 4
-2 -2 -2 -2 -2 -2 -2 -2 -1 -1 -2 -2 -1 -1 -1 -1 -4 -5 -6 -6 -6 -13 -20 -24 -27 -26 -18 -26 -22 -8 -7 -13 -19 -24 -24 -13 -13 -11 -10 -1 2 1 2 1 0 2 3
-2 -2 -2 -2 -2 -2 -2 -3 -2 -2 -2 -1 -3 -3 -2 -2 -6 -15 -14 -10 -9 -12 -20 -23 -26 -21 -24 -27 -26 -9 -10 -14 -15 -14 -15 -15 -9 -9 -8 -1 -0 1 2 5 1 -0 1
-2 -3 -2 -3 -3 -2 -2 -2 -2 -2 -2 -2 -2 -2 -2 -4 -18 -18 -22 -12 -3 -6 -16 -21 -21 -20 -22 -25 -26 -12 -12 -13 -15 -15 -15 -13 -9 -8 -2 0 2 0 6 4 2 -1 -1
-3 -2 -3 -3 -3 -2 -2 -2 -2 -3 -3 -2 -2 -2 -1 -3 -18 -19 -15 -3 -3 -8 -13 -13 -10 -11 -25 -20 -20 -19 -12 -13 -12 -14 -15 -13 -8 -7 -5 1 5 3 4 3 4 1 -0
-4 -3 -2 -3 -3 -3 -3 -3 -3 -2 -3 -3 -3 -2 -1 -4 -17 -12 -2 1 1 0 -4 -12 -14 -10 -11 -12 -9 -16 -11 -12 -11 -13 -13 -9 -8 -5 -6 -1 -0 1 3 3 1 -1 0
-3 -3 -4 -3 -3 -3 -2 -3 -3 -3 -3 -3 -3 -2 -3 -10 -13 -6 1 3 2 2 2 -2 -12 -9 -16 -11 -9 -9 -12 -11 -11 -12 -10 -8 -7 -9 -8 -4 -1 1 3 2 0 -1 0
-4 -4 -4 -4 -3 -3 -3 -3 -3 -3 -4 -4 -2 -2 -6 -13 -8 -0 2 0 0 1 3 2 -5 -8 -15 -14 -10 -10 -10 -11 -12 -11 -9 -8 -9 -8 -7 -5 -0 0 2 1 2 -0 -1
-4 -5 -4 -4 -3 -4 -3 -4 -3 -4 -3 -4 -3 -4 -9 -9 -5 -5 1 -0 0 1 1 -4 2 -2 -9 -16 -8 -12 -10 -11 -12 -11 -10 -10 -11 -8 -6 -5 -2 0 -2 0 1 2 4
-5 -4 -5 -3 -5 -4 -4 -4 -3 -4 -4 -4 -4 -10 -11 -9 -7 -9 -1 1 0 2 -10 -12 -0 -4 -8 -13 -12 -11 -13 -10 -11 -10 -9 -9 -9 -8 -6 -6 -4 -2 -1 0 1 1 2
-5 -4 -4 -4 -4 -4 -5 -4 -4 -5 -5 -4 -5 -12 -11 -9 -9 -12 -1 -0 3 -7 -12 -12 -6 -2 -7 -11 -11 -12 -12 -13 -13 -11 -9 -11 -10 -10 -9 -8 -5 -4 -1 0 1 2 4
-6 -5 -5 -5 -5 -4 -4 -4 -5 -5 -5 -4 -8 -11 -5 -4 -7 -3 -0 1 -2 -5 -9 -3 -3 -7 -6 -9 -11 -11 -11 -12 -10 -9 -8 -10 -10 -11 -10 -8 -7 -3 -0 4 5 5 5
-5 -5 -5 -5 -5 -5 -5 -6 -4 -5 -5 -5 -10 -12 -2 -2 -11 -3 -1 2 -4 -8 -4 -3 -3 -2 -5 -10 -11 -11 -10 -10 -12 -11 -9 -7 -6 -9 -9 -7 -5 -2 -1 4 6 7 5
-5 -5 -6 -6 -5 -5 -5 -5 -4 -5 -6 -9 -11 -10 -2 -2 -5 -3 0 2 -3 -3 -3 -3 -2 -3 -9 -10 -11 -11 -9 -10 -12 -10 -8 -5 -6 -8 -8 -7 -7 -3 0 -1 3 2 4
-5 -7 -5 -5 -6 -6 -5 -6 -5 -5 -5 -9 -11 -7 -2 -2 -2 -2 0 -3 -1 -3 -4 -4 1 -1 -0 -4 -9 -9 -8 -9 -9 -9 -6 -4 -6 -7 -7 -4 -5 -2 -2 1 2 4 4
-6 -6 -5 -6 -6 -6 -5 -5 -5 -5 -5 -10 -10 -6 -2 -2 -0 -0 -3 -2 -3 -5 -4 -3 -2 -1 -0 -1 -2 -8 -9 -10 -9 -10 -9 -7 -4 -5 -5 -4 -1 -1 0 2 1 2 4
-6 -7 -7 -5 -6 -7 -5 -6 -6 -6 -5 -11 -6 -8 -3 -1 -1 -2 -3 -2 -1 -2 -3 -3 -4 -1 -2 -3 -1 -2 -7 -9 -10 -9 -10 -8 -3 -3 -4 -7 -5 -1 -0 0 3 -0 2
-7 -6 -6 -6 -6 -7 -7 -6 -6 -7 -5 -8 -5 -6 -5 -3 -4 -4 -4 -2 0 -1 -2 -1 -2 -5 -4 -6 -0 -1 -2 -4 -5 -7 -7 -5 -4 0 -3 -5 -6 -2 -1 -0 0 1 2
-6 -6 -6 -6 -7 -7 -5 -5 -6 -9 -9 -8 -6 -8 -6 -6 -3 -4 -3 -3 -1 -3 -1 -2 -1 -2 -2 -2 -2 -1 -1 -2 -3 -4 -8 -7 -4 -4 -1 -4 -4 -2 -0 -1 -1 2 2
-6 -7 -7 -7 -7 -6 -6 -7 -6 -9 -8 -8 -6 -7 -4 -6 -5 -4 -5 -4 -3 -2 -5 -1 1 -1 1 1 0 -1 -1 -1 -2 -2 -2 -5 -4 -4 -5 -6 -5 -4 -1 -0 -1 -1 0
-6 -7 -7 -7 -8 -6 -6 -7 -6 -9 -7 -7 -6 -5 -5 -5 -5 -5 -5 -5 -4 -5 -5 -2 -3 -2 -1 1 2 2 -0 -1 -1 -2 -1 -2 -5 -4 -3 -4 -4 -4 -3 -1 -2 -1 -2
-6 -7 -7 -6 -6 -7 -7 -7 -8 -7 -7 -7 -7 -7 -5 -6 -6 -5 -5 -4 -6 -4 -5 -5 -4 0 -0 -1 -4 -3 -1 -2 -2 -0 -1 -1 -1 -1 -2 -2 -3 -1 -3 0 -0 -2 -2
-7 -6 -8 -6 -7 -8 -10 -9 -9 -9 -8 -6 -6 -5 -6 -7 -5 -5 -6 -5 -7 -5 -4 -4 -2 -2 -3 -5 -2 -3 -1 -1 -1 -1 -1 -1 -1 -0 0 -1 1 -4 -5 -2 -2 -2 -3
-7 -7 -8 -7 -6 -7 -7 -8 -8 -9 -9 -6 -5 -5 -6 -6 -6 -7 -6 -8 -6 -7 -5 -4 -3 -6 -4 -0 0 -1 -0 1 -0 -2 -2 -1 -1 1 2 1 -2 -4 -4 -4 -3 -5 -2
-7 -7 -7 -7 -8 -8 -8 -9 -8 -7 -7 -9 -9 -6 -6 -5 -7 -6 -7 -5 -5 -6 -5 -5 -8 -9 -3 0 1 -1 -0 -0 1 -2 -1 -1 -1 0 1 1 0 -3 -6 -6 -7 -3 -7
-7 -7 -8 -8 -7 -7 -7 -7 -7 -6 -5 -7 -9 -7 -6 -6 -8 -6 -6 -6 -7 -4 -4 -5 -7 -6 -6 -2 0 1 1 0 2 -0 3 2 1 1 -0 -1 -3 -5 -5 -7 -2 -3 -7
-8 -7 -7 -7 -7 -7 -7 -7 -7 -6 -6 -6 -6 -8 -6 -6 -7 -8 -7 -6 -7 -6 -6 -7 -8 -5 -5 -3 -2 -1 1 0 -0 -2 -1 3 4 2 1 0 -3 -4 -6 -5 -4 -7 -8
-8 -11 -8 -8 -8 -8 -8 -7 -7 -7 -6 -5 -6 -6 -7 -6 -9 -11 -10 -11 -9 -8 -6 -6 -6 -5 -5 -5 -3 -3 -1 1 0 1 -2 2 2 2 0 0 -2 -3 -2 -3 -4 -6 -7

GFSGBSN_850_dewp_306.txt.gz
Dewpoint
-1 -1 -1 -1 -1 -1 -1 -1 -1 -1 -1 -1 -1 -1 -1 -1 -2 -5 -10 -22 -21 -14 -9 -10 -16 -22 -25 -6 -12 -22 -10 -16 -24 -18 -12 -12 -11 -11 -10 -10 -8 -7 -6 2 4 6 7
-1 -2 -2 -2 -2 -2 -2 -2 -2 -1 -1 -2 -2 -1 -1 -1 -4 -8 -23 -27 -28 -23 -13 -10 -15 -18 -12 -9 -24 -25 -19 -23 -17 -12 -13 -14 -14 -11 -12 -10 -8 -7 -1 2 5 6 8
-2 -1 -1 -2 -2 -2 -2 -2 -2 -1 -2 -2 -2 -2 -2 -2 -4 -14 -28 -29 -29 -26 -18 -11 -13 -14 -7 -13 -23 -22 -15 -11 -7 -8 -10 -14 -10 -11 -10 -7 -1 -1 1 3 5 6 7
-2 -2 -2 -2 -3 -2 -3 -2 -2 -2 -2 -2 -2 -2 -2 -7 -12 -18 -28 -27 -23 -19 -13 -10 -13 -8 -10 -30 -29 -16 -9 -11 -10 -12 -16 -14 -11 -10 -7 -2 -1 -1 -1 2 4 5 6
-2 -2 -2 -2 -3 -3 -2 -2 -2 -2 -2 -2 -2 -3 -2 -7 -23 -26 -16 -10 -8 -5 -7 -13 -10 -2 -15 -28 -28 -25 -7 -10 -15 -17 -14 -12 -10 -8 -2 -3 -2 -1 -2 -2 5 4 5
-3 -3 -3 -3 -3 -3 -2 -3 -3 -3 -3 -3 -3 -3 -6 -13 -22 -15 -5 0 -2 -5 -7 -8 -2 -5 -15 -19 -11 -14 -20 -10 -13 -13 -13 -10 -8 -6 -7 -5 -4 -3 -3 -2 2 4 5
-3 -3 -3 -3 -3 -3 -3 -3 -3 -4 -4 -3 -3 -6 -15 -24 -19 -2 -3 2 -0 1 0 -7 -9 -10 -10 -7 -12 -10 -12 -11 -13 -14 -14 -11 -9 -9 -8 -6 -10 -8 -4 1 -1 3 5
-4 -3 -3 -3 -3 -3 -3 -3 -3 -3 -3 -3 -3 -3 -6 -25 -16 -1 0 0 -1 -1 0 -2 -2 -4 -6 -5 -8 -9 -10 -11 -12 -12 -14 -10 -9 -12 -11 -8 -7 -4 -4 -3 1 2 4
-5 -4 -5 -4 -3 -4 -3 -3 -4 -4 -3 -3 -3 -4 -4 -22 -12 -9 1 -1 -1 0 1 -2 -2 -3 -5 -6 -10 -12 -11 -11 -11 -12 -12 -12 -14 -15 -9 -4 -4 -5 -5 -4 0 2 2
-4 -5 -4 -4 -4 -4 -4 -3 -3 -4 -3 -3 -4 -4 -6 -16 -8 -11 -1 0 -0 2 0 -8 -4 -2 -3 -10 -14 -14 -11 -11 -12 -11 -12 -12 -12 -13 -9 -8 -5 -3 -5 -4 -1 2 1
-4 -5 -4 -5 -4 -4 -4 -4 -4 -4 -4 -4 -4 -5 -12 -7 -6 -4 -3 -0 1 2 1 -14 -4 -2 -5 -10 -18 -17 -11 -12 -11 -11 -11 -11 -12 -10 -11 -11 -7 -7 -4 -2 -0 -0 -1
-5 -5 -4 -4 -5 -5 -5 -4 -4 -4 -5 -4 -8 -14 -14 -2 -3 -9 -5 -1 3 -1 -3 -9 -5 -4 -6 -8 -14 -12 -11 -13 -13 -12 -11 -15 -13 -14 -13 -14 -10 -10 -3 -1 0 -0 5
-5 -6 -5 -5 -4 -5 -6 -4 -5 -5 -5 -7 -17 -14 -3 -3 -1 -9 -1 1 -1 -0 -11 -4 -3 -6 -6 -6 -10 -14 -12 -9 -10 -8 -9 -13 -11 -13 -13 -11 -9 -5 -1 3 4 6 6
-6 -6 -5 -5 -4 -5 -6 -6 -5 -5 -8 -15 -15 -5 -3 -2 -5 -3 -2 -2 -1 -7 -4 -5 -4 -5 -4 -7 -8 -15 -12 -9 -12 -13 -13 -10 -10 -11 -12 -11 -9 -4 -2 -1 2 3 1
-6 -5 -6 -5 -5 -6 -6 -4 -5 -7 -14 -14 -10 -5 -2 -3 -3 -3 -0 1 -1 -4 -5 -4 -4 -4 -4 -5 -7 -13 -11 -11 -11 -13 -11 -10 -12 -15 -12 -13 -11 -5 -1 -6 -2 2 0
-6 -6 -5 -5 -5 -5 -6 -6 -6 -13 -17 -12 -7 -4 -3 -3 -4 -1 -1 -2 -4 -4 -5 -5 -2 -4 -1 -3 -5 -9 -13 -12 -11 -11 -12 -10 -8 -13 -12 -12 -12 -7 -6 1 1 8 2
-5 -6 -6 -6 -5 -7 -4 -5 -6 -16 -18 -11 -5 -5 -4 -4 -3 -2 -1 -4 -4 -5 -5 -5 -3 -2 -3 -1 -3 -4 -11 -15 -12 -10 -11 -11 -9 -10 -11 -8 -9 -5 -4 -1 -1 -1 0
-6 -6 -6 -7 -6 -6 -6 -6 -6 -16 -14 -12 -5 -3 -7 -4 -3 -3 -2 -3 -2 -2 -3 -4 -4 -5 -3 -1 -2 -3 -2 -6 -3 -5 -9 -10 -7 -4 -10 -13 -13 -9 -6 -3 8 7 1
-6 -6 -6 -7 -6 -5 -5 -6 -6 -18 -12 -6 -5 -5 -7 -4 -1 -2 -5 -5 -5 -3 -3 -2 -2 -1 -2 0 0 -3 -1 -4 -3 -3 -8 -10 -7 -5 -4 -9 -9 -8 -7 -4 -3 1 3
-6 -7 -6 -9 -6 -6 -6 -8 -7 -15 -13 -6 -5 -3 -5 -5 -5 -5 -4 -5 -5 -6 -4 -4 -1 -3 -3 -3 -3 0 -0 -2 -2 -2 -0 -1 -8 -7 -4 -6 -8 -5 -7 -7 -3 2 1
-7 -7 -7 -7 -7 -6 -7 -12 -9 -10 -17 -6 -5 -5 -5 -4 -6 -8 -8 -8 -7 -7 -7 -6 -2 -4 -1 -0 -2 0 0 -1 -2 -2 -2 -3 -5 -7 -10 -10 -8 -8 -7 -6 -5 -4 -1
-7 -8 -7 -6 -9 -6 -7 -7 -9 -9 -14 -6 -5 -6 -7 -9 -9 -10 -10 -9 -8 -9 -8 -6 -6 -7 -4 -1 -0 -1 -3 0 1 -0 -0 -1 -3 -7 -2 -10 -8 -6 -7 -6 -6 -6 -7
-8 -9 -7 -7 -6 -9 -6 -7 -6 -7 -8 -5 -5 -5 -6 -9 -11 -11 -9 -8 -8 -9 -10 -9 -9 -6 -5 -4 -8 -7 -6 -4 -0 2 1 1 1 -1 -2 -8 -10 -4 -6 -5 -6 -7 -7
-9 -9 -7 -7 -7 -7 -6 -8 -8 -6 -7 -5 -6 -5 -7 -8 -12 -11 -10 -10 -10 -9 -8 -10 -9 -6 -8 -8 -6 -4 -2 -2 -1 -0 1 3 2 -0 2 -5 1 -7 -10 -10 -4 -4 -6
-8 -9 -7 -8 -9 -7 -8 -8 -7 -6 -6 -5 -5 -5 -6 -6 -11 -11 -12 -11 -11 -12 -11 -9 -8 -9 -8 -6 -3 -3 2 2 2 -0 0 1 3 3 5 1 -7 -8 -7 -8 -8 -6 -6
-7 -10 -8 -8 -8 -7 -7 -8 -8 -7 -6 -6 -5 -6 -5 -6 -12 -11 -10 -12 -12 -10 -10 -10 -10 -9 -5 -6 -2 -1 -2 -3 2 2 -0 1 2 2 4 3 1 -8 -10 -8 -9 -2 -8
-8 -9 -8 -11 -8 -8 -10 -10 -9 -8 -7 -7 -5 -6 -5 -6 -9 -8 -10 -9 -9 -9 -9 -11 -8 -8 -8 -4 -2 -2 -1 -5 -1 -0 2 3 4 4 3 3 -4 -2 -3 -6 -1 -4 -9
-10 -8 -9 -14 -8 -8 -8 -12 -13 -11 -9 -6 -6 -6 -6 -5 -8 -8 -8 -8 -8 -10 -9 -9 -7 -7 -7 -4 -3 -3 -1 -2 0 -2 2 -1 2 5 3 4 1 -1 -5 -1 1 -0 -4
-8 -8 -9 -14 -8 -8 -7 -6 -7 -8 -9 -8 -6 -6 -6 -5 -7 -7 -6 -9 -7 -9 -9 -7 -7 -6 -6 -4 -6 -7 -3 -3 -4 0 -3 2 2 2 5 4 0 -0 -0 -0 -0 -0 -1

GFSGBSN_850_dewp_309.txt.gz
Dewpoint
0 -1 -2 -2 -2 -1 -1 -1 -1 -2 -1 -2 -1 -1 -1 -2 -2 -5 -9 -23 -26 -27 -24 -13 -9 -14 -24 -5 -9 -13 -14 -8 -17 -19 -14 -14 -13 -12 -11 -12 -10 -9 -11 -12 -7 -2 -2
-1 -0 -1 -2 -2 -2 -1 -2 -1 -2 -1 -2 -2 -3 -4 -3 -5 -12 -27 -29 -29 -29 -28 -20 -10 -11 -2 -5 -16 -12 -8 -19 -11 -10 -17 -14 -14 -13 -13 -13 -11 -9 -10 -7 -2 0 1
-2 -2 -2 -2 -2 -2 -2 -2 -2 -1 -2 -1 -1 -3 -4 -6 -10 -24 -30 -30 -29 -28 -27 -19 -11 -9 0 -9 -14 -10 -4 -9 -11 -13 -15 -15 -15 -14 -12 -12 -12 -9 -8 -4 -1 -1 3
-2 -2 -2 -2 -2 -2 -3 -2 -3 -2 -2 -2 -2 -5 -8 -11 -24 -29 -29 -23 -19 -18 -18 -14 -9 1 -2 -13 -13 -13 -6 -9 -9 -11 -11 -14 -14 -12 -13 -11 -9 -5 -4 -0 -3 2 3
-2 -3 -2 -3 -2 -2 -2 -2 -2 -2 -2 -3 -5 -5 -11 -24 -27 -30 -21 -12 -5 -6 -7 -8 -5 2 -6 -15 -20 -17 -9 -8 -9 -10 -12 -16 -12 -11 -9 -6 -4 -5 -3 -3 -3 1 3
-2 -2 -2 -2 -3 -2 -2 -2 -3 -3 -3 -3 -5 -9 -11 -22 -28 -20 -10 -7 -2 -2 -1 1 -2 -1 -7 -19 -22 -21 -13 -8 -11 -16 -14 -14 -12 -10 -7 -4 -4 -5 -6 -5 -1 1 1
-3 -3 -4 -2 -2 -3 -3 -3 -3 -3 -3 -3 -5 -11 -25 -25 -26 -10 -5 0 0 3 1 -3 -7 -8 -14 -13 -10 -12 -18 -8 -13 -14 -15 -13 -11 -7 -6 -7 -10 -9 -7 -8 -7 -0 1
-4 -3 -3 -4 -3 -3 -3 -3 -3 -3 -3 -3 -4 -7 -23 -30 -24 -8 0 -2 -2 -1 -1 -4 -6 -5 -10 -8 -8 -14 -16 -9 -11 -11 -15 -12 -9 -12 -12 -11 -9 -9 -9 -6 -8 -1 1
-4 -4 -4 -3 -3 -4 -4 -3 -3 -4 -3 -4 -4 -5 -25 -34 -20 -3 -3 0 -1 1 1 -3 -5 -6 -7 -9 -9 -14 -15 -11 -11 -11 -13 -11 -12 -13 -12 -11 -8 -8 -8 -5 -4 2 1
-5 -5 -3 -4 -4 -3 -4 -3 -3 -4 -4 -4 -4 -8 -21 -30 -3 -3 -3 0 0 2 1 -3 -5 -6 -5 -9 -11 -12 -14 -12 -12 -11 -12 -12 -14 -14 -13 -11 -10 -7 -8 -7 -6 1 2
-4 -5 -5 -5 -3 -5 -5 -4 -4 -4 -4 -7 -11 -17 -19 -12 -3 -4 -3 -1 1 2 6 -14 -7 -4 -6 -9 -19 -17 -13 -14 -11 -11 -12 -11 -12 -13 -13 -10 -8 -7 -9 -9 -8 -1 -2
-5 -5 -5 -6 -5 -4 -5 -5 -4 -5 -10 -19 -17 -16 -7 -2 -1 -2 -3 -1 2 4 3 -8 -7 -4 -7 -8 -11 -17 -16 -14 -14 -12 -12 -13 -15 -13 -14 -13 -12 -10 -8 -6 -5 -2 3
-5 -4 -5 -4 -4 -4 -5 -5 -6 -16 -20 -19 -15 -6 -3 -1 -1 -1 -1 1 3 1 -11 -7 -5 -6 -7 -8 -11 -14 -15 -11 -11 -8 -8 -11 -12 -15 -14 -13 -14 -9 -6 0 2 4 3
-5 -6 -5 -6 -4 -5 -4 -5 -11 -25 -22 -17 -10 -5 -1 -1 -0 0 1 -1 1 -6 -8 -8 -9 -9 -7 -8 -9 -12 -13 -11 -14 -13 -10 -8 -8 -13 -15 -13 -13 -10 -6 -1 2 1 -0
-5 -5 -6 -6 -4 -7 -4 -5 -17 -27 -23 -15 -6 -3 -3 -1 -0 1 -1 4 -1 -4 -7 -6 -8 -8 -8 -7 -7 -9 -13 -12 -13 -14 -9 -9 -10 -15 -15 -14 -14 -9 -5 -6 -3 -3 -1
-5 -5 -5 -6 -5 -5 -5 -12 -20 -28 -24 -15 -3 -3 -4 -6 -1 1 -2 -1 -5 -7 -8 -8 -6 -6 -4 -1 -6 -7 -11 -14 -12 -14 -13 -11 -8 -14 -14 -14 -15 -11 -9 -1 0 8 2
-6 -5 -5 -9 -5 -5 -6 -17 -18 -27 -26 -14 -3 -5 -5 -7 1 -2 1 -2 -6 -7 -7 -7 -6 -5 -3 0 -2 -4 -8 -11 -10 -13 -13 -12 -9 -9 -13 -11 -12 -12 -7 -4 -3 -2 3
-6 -6 -6 -7 -6 -5 -9 -17 -14 -25 -25 -6 -7 -3 -6 -3 -2 -3 -2 -4 -4 -3 -4 -4 -7 -7 -3 -3 -1 -4 -4 -2 -3 -3 -5 -11 -8 -6 -9 -13 -13 -15 -10 -6 6 6 4
-7 -7 -6 -6 -6 -5 -6 -13 -12 -20 -20 -4 -7 -7 -8 -6 -1 -2 -5 -5 -6 -6 -5 -4 -4 -3 -4 -2 0 -0 1 -1 -2 -1 -1 -6 -4 -3 -6 -8 -12 -10 -12 -8 -5 -1 4
-7 -7 -7 -6 -7 -6 -6 -8 -10 -15 -12 -4 -6 -1 -6 -8 -9 -8 -7 -7 -7 -8 -6 -7 -3 -4 -4 -5 -3 -1 -0 -1 -2 -1 -0 -1 -3 -6 -3 -6 -10 -9 -11 -9 -6 2 2
-8 -8 -7 -7 -6 -14 -6 -8 -9 -12 -8 -6 -6 -6 -6 -2 -7 -10 -10 -10 -9 -10 -9 -7 -2 -6 -4 -1 -1 0 -1 -3 -2 -1 -1 -3 -3 -6 -9 -9 -10 -11 -11 -11 -8 -5 -0
-7 -10 -7 -8 -6 -7 -6 -7 -7 -9 -6 -7 -5 -6 -7 -9 -12 -12 -10 -10 -9 -11 -11 -9 -6 -8 -7 -2 -0 -2 -4 -3 0 -0 -0 -0 0 -5 -2 -10 -10 -9 -10 -10 -10 -9 -7
-8 -10 -7 -7 -8 -6 -6 -7 -9 -9 -6 -6 -8 -7 -7 -9 -13 -13 -10 -11 -11 -12 -12 -12 -11 -10 -7 -3 -8 -8 -8 -7 -4 1 1 1 4 1 -2 -8 -9 -4 -7 -10 -10 -10 -9
-8 -8 -8 -7 -9 -6 -6 -8 -6 -6 -6 -4 -6 -6 -7 -8 -13 -13 -12 -14 -13 -13 -11 -12 -13 -10 -9 -10 -9 -9 -8 -6 -4 -3 -0 0 1 3 2 -4 2 -6 -11 -9 -9 -10 -10
-9 -7 -10 -7 -13 -7 -8 -9 -8 -7 -7 -4 -5 -6 -6 -6 -11 -12 -14 -14 -14 -15 -14 -13 -11 -11 -10 -9 -7 -6 -3 -2 3 -2 -1 0 2 4 4 0 -4 -9 -11 -10 -8 -6 -8
-9 -9 -8 -8 -16 -8 -9 -12 -9 -9 -8 -5 -4 -5 -5 -5 -10 -12 -11 -11 -11 -12 -11 -12 -12 -10 -9 -8 -5 -1 -3 -3 2 1 -2 0 1 4 4 3 1 -8 -13 -16 -12 -3 -9
-8 -9 -8 -10 -15 -7 -8 -10 -13 -11 -10 -6 -4 -4 -4 -5 -10 -10 -10 -9 -10 -10 -10 -13 -11 -10 -10 -5 -2 -2 -5 -5 -1 2 2 3 4 5 4 3 -1 -1 -2 -6 -4 -3 -3
-8 -9 -8 -10 -14 -8 -8 -7 -7 -9 -10 -7 -5 -4 -4 -5 -8 -9 -9 -9 -10 -12 -9 -9 -10 -5 -8 -4 -3 -1 -3 -1 -2 -3 4 3 3 5 6 5 5 0 -2 1 1 0 0
-10 -8 -8 -11 -14 -8 -7 -7 -6 -6 -6 -6 -5 -4 -5 -5 -6 -6 -6 -6 -7 -9 -9 -11 -8 -8 -6 -3 -2 -4 -5 -5 -4 -0 -3 3 1 2 3 6 3 1 0 0 -0 -0 -0